• In Uzbekistan
  • List of Countries
  • For 7 days
  • Water Temperature
  • Satellite Maps
  • Weather Map
  • Weather Widgets
  • user-avatar
    Login

    Hourly Weather Lovlya

    Today, 23 October, Tuesday

    Time Temperature Precipitation Wind Pressure Humidity
    00:00 +2°C° 0.1 mm 5 mps 740 mmHg 80%
    01:00 +2°C° 0.2 mm 5 mps 739 mmHg 82%
    02:00 +2°C° 0.2 mm 5 mps 739 mmHg 83%
    03:00 +1°C° 0.2 mm 4 mps 739 mmHg 85%
    04:00 +1°C° 0.4 mm 4 mps 738 mmHg 85%
    05:00 +1°C° 0.4 mm 4 mps 738 mmHg 86%
    06:00 +1°C° 0.4 mm 4 mps 737 mmHg 87%
    07:00 +1°C° 0.2 mm 4 mps 737 mmHg 86%
    08:00 +1°C° 0.2 mm 4 mps 737 mmHg 86%
    09:00 +1°C° 0.2 mm 4 mps 736 mmHg 85%
    10:00 +2°C° 0.1 mm 5 mps 736 mmHg 84%
    11:00 +2°C° 0.1 mm 5 mps 736 mmHg 82%
    12:00 +2°C° 0.1 mm 5 mps 735 mmHg 81%
    13:00 +3°C° 0.1 mm 4 mps 735 mmHg 81%
    14:00 +3°C° 0.1 mm 4 mps 735 mmHg 82%
    15:00 +3°C° 0.1 mm 4 mps 735 mmHg 82%
    16:00 +3°C° 0.1 mm 4 mps 735 mmHg 83%
    17:00 +3°C° 0.1 mm 3 mps 735 mmHg 85%
    18:00 +3°C° 0.1 mm 3 mps 735 mmHg 87%
    19:00 +4°C° 0 mm 2 mps 735 mmHg 88%
    20:00 +4°C° 0 mm 2 mps 735 mmHg 90%
    21:00 +5°C° 0 mm 1 mps 735 mmHg 92%
    22:00 +4°C° 0.1 mm 1 mps 734 mmHg 93%
    23:00 +4°C° 0.1 mm 1 mps 734 mmHg 95%

    Tomorrow, 24 October, Wednesday

    Time Temperature Precipitation Wind Pressure Humidity
    00:00 +4°C° 0.1 mm 1 mps 734 mmHg 96%
    01:00 +3°C° 0.1 mm 0 mps 734 mmHg 96%
    02:00 +3°C° 0.1 mm 0 mps 734 mmHg 96%
    03:00 +3°C° 0.1 mm 0 mps 734 mmHg 96%
    04:00 +3°C° 0 mm 0 mps 734 mmHg 96%
    05:00 +3°C° 0 mm 1 mps 734 mmHg 96%
    06:00 +3°C° 0 mm 1 mps 733 mmHg 96%
    07:00 +4°C° 0.1 mm 1 mps 733 mmHg 95%
    08:00 +4°C° 0.1 mm 1 mps 733 mmHg 94%
    09:00 +4°C° 0.1 mm 1 mps 733 mmHg 93%
    10:00 +4°C° 0.1 mm 2 mps 733 mmHg 91%
    11:00 +4°C° 0.1 mm 2 mps 733 mmHg 89%
    12:00 +4°C° 0.1 mm 2 mps 733 mmHg 87%
    13:00 +5°C° 0.1 mm 2 mps 733 mmHg 86%
    14:00 +5°C° 0.1 mm 2 mps 732 mmHg 85%
    15:00 +5°C° 0.1 mm 2 mps 732 mmHg 84%
    16:00 +4°C° 0.2 mm 3 mps 732 mmHg 84%
    17:00 +4°C° 0.2 mm 3 mps 732 mmHg 85%
    18:00 +4°C° 0.2 mm 3 mps 732 mmHg 86%
    19:00 +4°C° 0.3 mm 3 mps 732 mmHg 87%
    20:00 +4°C° 0.3 mm 3 mps 732 mmHg 87%
    21:00 +4°C° 0.3 mm 3 mps 732 mmHg 88%
    22:00 +4°C° 0.1 mm 3 mps 732 mmHg 88%
    23:00 +4°C° 0.1 mm 3 mps 732 mmHg 89%

    Day after tomorrow, 25 October, Thursday

    Time Temperature Precipitation Wind Pressure Humidity
    00:00 +4°C° 0.1 mm 3 mps 732 mmHg 90%
    01:00 +3°C° 0 mm 3 mps 732 mmHg 91%
    02:00 +4°C° 0 mm 2 mps 732 mmHg 93%
    03:00 +4°C° 0 mm 2 mps 732 mmHg 94%
    04:00 +4°C° 0 mm 2 mps 732 mmHg 94%
    05:00 +4°C° 0 mm 2 mps 732 mmHg 94%
    06:00 +4°C° 0 mm 2 mps 732 mmHg 94%
    07:00 +5°C° 0 mm 2 mps 732 mmHg 93%
    08:00 +5°C° 0 mm 2 mps 732 mmHg 92%
    09:00 +4°C° 0 mm 3 mps 732 mmHg 91%
    10:00 +4°C° 0 mm 3 mps 731 mmHg 90%
    11:00 +5°C° 0 mm 3 mps 731 mmHg 89%
    12:00 +5°C° 0 mm 3 mps 731 mmHg 88%
    13:00 +5°C° 0.2 mm 3 mps 730 mmHg 89%
    14:00 +7°C° 0.2 mm 3 mps 730 mmHg 90%
    15:00 +6°C° 0.2 mm 4 mps 729 mmHg 91%
    16:00 +6°C° 0.5 mm 4 mps 728 mmHg 91%
    17:00 +6°C° 0.5 mm 4 mps 727 mmHg 91%
    18:00 +7°C° 0.5 mm 5 mps 726 mmHg 91%
    19:00 +7°C° 1.1 mm 5 mps 725 mmHg 90%
    20:00 +8°C° 1.1 mm 6 mps 725 mmHg 89%
    21:00 +8°C° 1.1 mm 6 mps 724 mmHg 87%
    22:00 +8°C° 0.9 mm 5 mps 724 mmHg 85%
    23:00 +8°C° 0.9 mm 5 mps 723 mmHg 83%

    26 October, Friday

    Time Temperature Precipitation Wind Pressure Humidity
    00:00 +7°C° 0.9 mm 4 mps 723 mmHg 82%
    01:00 +7°C° 0 mm 5 mps 723 mmHg 79%
    02:00 +6°C° 0 mm 5 mps 723 mmHg 77%
    03:00 +5°C° 0 mm 5 mps 723 mmHg 74%
    04:00 +4°C° 0 mm 6 mps 723 mmHg 74%
    05:00 +4°C° 0 mm 6 mps 723 mmHg 74%
    06:00 +4°C° 0 mm 6 mps 723 mmHg 73%
    07:00 +3°C° 0 mm 6 mps 723 mmHg 73%
    08:00 +3°C° 0 mm 6 mps 723 mmHg 73%
    09:00 +3°C° 0 mm 6 mps 723 mmHg 72%
    10:00 +3°C° 0.1 mm 6 mps 723 mmHg 72%
    11:00 +3°C° 0.1 mm 6 mps 723 mmHg 72%
    12:00 +3°C° 0.1 mm 6 mps 724 mmHg 72%
    13:00 +3°C° 0.2 mm 6 mps 724 mmHg 73%
    14:00 +3°C° 0.2 mm 6 mps 724 mmHg 74%
    15:00 +3°C° 0.2 mm 6 mps 725 mmHg 75%
    16:00 +2°C° 0.2 mm 6 mps 725 mmHg 76%
    17:00 +2°C° 0.2 mm 5 mps 726 mmHg 77%
    18:00 +2°C° 0.2 mm 5 mps 727 mmHg 78%
    19:00 +2°C° 0.1 mm 5 mps 727 mmHg 78%
    20:00 +1°C° 0.1 mm 5 mps 728 mmHg 78%
    21:00 +1°C° 0.1 mm 5 mps 728 mmHg 79%
    22:00 +1°C° 0 mm 4 mps 729 mmHg 79%
    23:00 +1°C° 0 mm 4 mps 730 mmHg 79%

    27 October, Saturday

    Time Temperature Precipitation Wind Pressure Humidity
    00:00 +1°C° 0 mm 4 mps 730 mmHg 80%
    01:00 +1°C° 0 mm 4 mps 731 mmHg 80%
    02:00 +1°C° 0 mm 4 mps 731 mmHg 80%
    03:00 0°C° 0 mm 4 mps 732 mmHg 81%
    04:00 0°C° 0 mm 4 mps 732 mmHg 81%
    05:00 0°C° 0 mm 4 mps 732 mmHg 81%
    06:00 0°C° 0 mm 4 mps 733 mmHg 81%
    07:00 -1°C° 0 mm 4 mps 733 mmHg 79%
    08:00 -1°C° 0 mm 4 mps 734 mmHg 77%
    09:00 -1°C° 0 mm 5 mps 734 mmHg 75%
    10:00 -1°C° 0 mm 5 mps 735 mmHg 74%
    11:00 -1°C° 0 mm 5 mps 735 mmHg 73%
    12:00 -1°C° 0 mm 5 mps 735 mmHg 72%
    13:00 -1°C° 0 mm 5 mps 736 mmHg 73%
    14:00 -1°C° 0 mm 4 mps 736 mmHg 74%
    15:00 -1°C° 0 mm 4 mps 737 mmHg 75%
    16:00 -1°C° 0.1 mm 4 mps 737 mmHg 77%
    17:00 -1°C° 0.1 mm 4 mps 738 mmHg 79%
    18:00 -1°C° 0.1 mm 4 mps 738 mmHg 80%
    19:00 -1°C° 0 mm 4 mps 739 mmHg 81%
    20:00 -1°C° 0 mm 4 mps 739 mmHg 81%
    21:00 -1°C° 0 mm 4 mps 740 mmHg 82%
    22:00 0°C° 0 mm 3 mps 740 mmHg 82%
    23:00 -1°C° 0 mm 3 mps 740 mmHg 82%

    28 October, Sunday

    Time Temperature Precipitation Wind Pressure Humidity
    00:00 -1°C° 0 mm 3 mps 741 mmHg 82%
    01:00 -1°C° 0 mm 3 mps 741 mmHg 84%
    02:00 -2°C° 0 mm 3 mps 741 mmHg 85%
    03:00 -2°C° 0 mm 3 mps 742 mmHg 86%
    04:00 -2°C° 0 mm 3 mps 741 mmHg 85%
    05:00 -2°C° 0 mm 3 mps 741 mmHg 85%
    06:00 -2°C° 0 mm 3 mps 741 mmHg 84%
    07:00 -1°C° 0.2 mm 3 mps 741 mmHg 86%
    08:00 -1°C° 0.2 mm 3 mps 740 mmHg 87%
    09:00 -1°C° 0.2 mm 3 mps 740 mmHg 88%
    10:00 0°C° 0.4 mm 3 mps 740 mmHg 88%
    11:00 +1°C° 0.4 mm 2 mps 740 mmHg 88%
    12:00 +2°C° 0.4 mm 2 mps 739 mmHg 87%
    13:00 +2°C° 0.2 mm 2 mps 739 mmHg 89%
    14:00 +2°C° 0.2 mm 2 mps 739 mmHg 91%
    15:00 +4°C° 0.2 mm 1 mps 740 mmHg 93%
    16:00 +4°C° 0.1 mm 1 mps 740 mmHg 94%
    17:00 +3°C° 0.1 mm 1 mps 740 mmHg 95%
    18:00 +3°C° 0.1 mm 1 mps 741 mmHg 96%
    19:00 +3°C° 0 mm 1 mps 741 mmHg 96%
    20:00 +3°C° 0 mm 1 mps 741 mmHg 97%
    21:00 +3°C° 0 mm 1 mps 742 mmHg 97%
    22:00 +2°C° 0 mm 1 mps 742 mmHg 97%
    23:00 +2°C° 0 mm 1 mps 742 mmHg 97%

    29 October, Monday

    Time Temperature Precipitation Wind Pressure Humidity
    00:00 +1°C° 0 mm 0 mps 743 mmHg 97%
    01:00 +2°C° 0.1 mm 1 mps 742 mmHg 97%
    02:00 +3°C° 0.1 mm 1 mps 742 mmHg 97%
    03:00 +2°C° 0.1 mm 2 mps 742 mmHg 97%
    04:00 +2°C° 0.2 mm 2 mps 741 mmHg 97%
    05:00 +2°C° 0.2 mm 2 mps 741 mmHg 96%
    06:00 +1°C° 0.2 mm 3 mps 740 mmHg 96%
    07:00 +1°C° 0.2 mm 3 mps 740 mmHg 95%
    08:00 +2°C° 0.2 mm 3 mps 739 mmHg 94%
    09:00 +2°C° 0.2 mm 3 mps 739 mmHg 93%
    10:00 +3°C° 0.7 mm 3 mps 738 mmHg 94%
    11:00 +3°C° 0.7 mm 4 mps 737 mmHg 94%
    12:00 +4°C° 0.7 mm 4 mps 736 mmHg 94%
    13:00 +5°C° 0.6 mm 4 mps 735 mmHg 90%
    14:00 +6°C° 0.6 mm 5 mps 735 mmHg 85%
    15:00 +7°C° 0.6 mm 6 mps 734 mmHg 80%
    16:00 +5°C° 0.1 mm 6 mps 735 mmHg 80%
    17:00 +4°C° 0.1 mm 6 mps 736 mmHg 80%
    18:00 +3°C° 0.1 mm 6 mps 737 mmHg 80%
    19:00 +2°C° 0.1 mm 6 mps 739 mmHg 80%
    20:00 -1°C° 0.1 mm 6 mps 741 mmHg 81%
    21:00 -2°C° 0.1 mm 7 mps 743 mmHg 81%
    22:00 -2°C° 0 mm 6 mps 745 mmHg 81%
    23:00 -2°C° 0 mm 5 mps 747 mmHg 81%
    Show more